Temp
47 47 48 48 48 49 49 50 54 55 55 55 57 57 57 56 55 54 57 56 53 53
45 45 45 46 47 49 49 53 52 52 52 52 53 53 54 53 53 56 55 54 54 53
43 45 45 45 45 46 47 48 49 49 49 49 49 49 48 47 48 51 50 49 49 47
42 43 43 44 44 44 44 45 45 46 46 46 45 45 45 44 45 48 46 45 45 43
41 41 41 42 42 43 42 42 42 43 43 42 42 41 41 41 41 41 41 42 43 41
39 39 40 41 42 42 41 40 40 40 39 39 39 39 38 38 38 38 38 38 37 38
39 39 40 44 45 44 43 38 38 38 38 38 37 37 36 36 35 35 36 36 36 37
42 43 43 42 42 42 42 38 37 38 39 40 41 40 35 35 37 37 36 36 36 38
41 41 40 40 40 39 39 40 41 41 40 41 42 43 41 38 36 36 35 34 34 35
40 39 38 39 38 37 37 38 37 38 39 40 41 42 41 39 33 29 29 29 29 32
38 37 37 37 35 35 36 35 36 36 37 37 40 42 40 37 28 26 25 27 24 27
38 36 36 34 33 34 34 33 32 33 32 26 27 40 38 30 23 24 23 28 28 29
38 36 34 34 33 34 34 33 27 21 21 34 20 40 39 29 26 22 27 28 29 36
37 35 35 34 34 31 30 31 30 24 21 24 30 30 40 39 30 29 28 28 28 30
MSLP
1019.01 1018.90 1018.75 1018.57 1018.28 1018.00 1017.73 1017.36 1016.91 1016.64 1016.34 1016.23 1015.92 1015.73 1015.79 1016.43 1016.57 1016.61 1016.94 1017.24 1017.39 1017.49
1019.29 1019.06 1018.96 1018.82 1018.48 1018.16 1017.84 1017.46 1017.06 1016.80 1016.82 1016.65 1016.51 1016.47 1016.58 1016.79 1016.95 1017.00 1017.29 1017.48 1017.57 1017.66
1019.56 1019.48 1019.33 1019.03 1018.79 1018.55 1018.22 1017.82 1017.48 1017.35 1017.30 1017.15 1017.11 1017.16 1017.14 1017.34 1017.52 1017.69 1017.94 1018.09 1018.15 1018.43
1019.91 1019.73 1019.47 1019.32 1019.04 1018.91 1018.67 1018.36 1018.17 1018.04 1017.93 1017.80 1017.69 1017.67 1017.70 1017.88 1017.96 1018.10 1018.41 1018.60 1018.67 1018.86
1020.04 1019.86 1019.66 1019.50 1019.31 1019.28 1019.13 1018.80 1018.70 1018.62 1018.54 1018.41 1018.39 1018.28 1018.30 1018.35 1018.45 1018.57 1018.76 1019.01 1018.91 1019.07
1020.22 1020.10 1019.88 1019.74 1019.57 1019.61 1019.52 1019.39 1019.31 1019.26 1019.19 1019.17 1019.12 1019.03 1019.07 1019.13 1019.27 1019.27 1019.28 1019.29 1019.28 1019.49
1020.41 1020.31 1020.06 1019.96 1019.92 1019.97 1020.02 1020.01 1020.08 1019.94 1019.81 1019.77 1019.67 1019.67 1019.79 1019.92 1019.89 1019.94 1019.99 1019.98 1020.01 1020.02
1020.45 1020.50 1020.16 1020.45 1020.43 1020.49 1020.55 1020.62 1020.63 1020.38 1020.28 1020.25 1020.26 1020.34 1020.39 1020.40 1020.36 1020.49 1020.67 1020.86 1020.84 1020.80
1020.58 1020.64 1020.58 1021.03 1020.86 1021.01 1021.23 1021.19 1021.12 1020.84 1020.89 1020.75 1020.75 1020.83 1020.86 1020.96 1020.97 1021.19 1021.39 1021.63 1021.68 1021.62
1020.73 1020.77 1021.31 1021.27 1021.25 1021.61 1021.77 1021.78 1021.73 1021.55 1021.40 1021.45 1021.40 1021.29 1021.34 1021.45 1021.60 1021.90 1022.13 1022.31 1022.34 1022.31
1020.97 1021.29 1021.64 1021.78 1021.78 1021.93 1022.07 1022.12 1022.36 1022.33 1022.28 1022.17 1021.87 1021.71 1021.83 1021.97 1022.05 1022.24 1022.60 1022.69 1022.74 1022.63
1021.35 1021.76 1021.97 1022.03 1022.22 1022.35 1022.38 1022.76 1022.95 1023.25 1023.19 1022.82 1022.60 1022.44 1022.39 1022.31 1022.36 1022.69 1022.94 1022.93 1022.93 1022.59
1021.48 1021.86 1022.17 1022.42 1022.59 1022.59 1023.17 1023.11 1023.49 1023.76 1023.59 1023.36 1023.12 1022.51 1022.40 1022.54 1022.67 1023.16 1023.18 1023.15 1023.10 1022.68
1021.71 1021.84 1022.22 1022.59 1023.06 1023.64 1023.78 1023.49 1023.75 1023.91 1023.83 1023.66 1023.27 1022.62 1022.32 1022.47 1022.78 1023.02 1023.19 1023.23 1023.12 1022.99
Wind_Speed
6 3 2 3 3 3 3 4 5 4 4 5 5 5 4 1 0 1 2 5 4 3
5 6 5 5 4 3 4 4 5 5 5 5 6 6 5 4 5 4 5 4 4 2
4 4 4 4 5 5 5 5 5 6 6 6 6 6 6 5 5 6 4 4 6 6
3 4 4 4 4 5 5 6 6 5 5 6 6 6 6 6 5 6 5 5 5 5
3 4 4 4 5 5 5 5 5 5 6 6 6 6 6 6 5 6 6 4 4 5
4 4 4 4 4 5 5 6 6 6 6 6 6 6 7 6 6 6 6 5 6 4
4 3 4 5 6 7 7 6 6 6 6 6 7 7 6 5 6 6 7 6 6 5
3 4 5 6 7 8 8 6 6 6 7 7 8 5 5 7 9 8 9 9 8 9
4 5 6 6 7 8 7 6 7 9 8 8 7 14 14 9 7 7 7 6 6 6
4 6 5 6 7 7 6 5 6 7 7 7 7 13 13 12 6 6 5 5 5 4
4 5 5 6 7 6 4 5 5 6 6 6 6 12 12 12 6 6 5 4 3 4
4 4 5 6 6 4 5 5 5 4 5 5 5 10 10 8 5 5 4 4 4 2
5 5 5 6 5 4 3 4 3 3 4 6 3 6 9 6 3 3 3 3 4 8
4 5 5 5 3 3 4 5 3 1 3 2 4 4 7 6 3 2 1 2 3 3
Wind_Direction
25 19 5 338 324 324 297 295 324 0 28 21 22 32 55 48 113 116 244 265 234 227
17 18 10 359 356 346 349 346 14 24 33 33 38 39 49 48 38 31 30 21 355 306
7 8 9 20 16 9 3 8 20 28 32 38 42 42 57 57 49 64 51 35 40 43
3 4 19 29 25 20 21 20 29 28 39 44 48 42 62 61 54 75 67 51 69 70
12 13 29 31 31 26 28 29 36 33 42 39 41 41 55 61 51 69 75 63 70 68
21 21 30 38 58 50 38 35 38 45 47 43 39 44 44 51 52 53 53 46 57 52
35 18 42 50 56 58 55 46 39 42 51 53 50 49 50 58 58 53 46 39 40 32
50 53 60 60 61 64 61 54 42 51 52 54 58 59 55 60 67 60 52 36 33 35
76 70 66 70 67 61 53 57 69 71 60 60 61 66 71 74 67 58 57 47 34 29
83 80 79 79 78 77 67 59 55 51 56 63 69 75 77 77 70 72 58 47 35 35
95 97 96 94 90 78 64 52 45 44 43 49 60 70 77 82 73 69 54 45 38 40
126 123 113 94 92 77 72 58 51 28 42 51 13 71 76 78 67 61 36 35 9 53
133 127 114 110 104 78 83 96 83 38 16 47 7 62 65 70 64 56 25 10 7 0
121 117 114 101 87 131 158 135 116 43 347 6 10 5 48 67 74 68 12 6 352 344